Weather reports worldwide

Advertisment
Cervia, Italy (16148): temperature & dewpoint: 24.10.2020 14:00:00 - 30.10.2020 14:00:00 (CET)Cervia, Italy (16148): wind speed: 24.10.2020 14:00:00 - 30.10.2020 14:00:00 (CET)Cervia, Italy (16148): wind direction: 24.10.2020 14:00:00 - 30.10.2020 14:00:00 (CET)Cervia, Italy (16148): reduced air pressure: 24.10.2020 14:00:00 - 30.10.2020 14:00:00 (CET)Cervia, Italy (16148): visibility: 24.10.2020 14:00:00 - 30.10.2020 14:00:00 (CET)Cervia, Italy (16148): sunshine duration: 24.10.2020 14:00:00 - 30.10.2020 14:00:00 (CET)
Date & Time tt [°C] td [°C] ff [km/h] ff [kn] dd ppp [hPa] vv [km] sd [min]
30.10.2020 14:00:00 - - - - - - - -
30.10.2020 13:00:00 17,3 11,8 5 3 ENE 1023,7 20 60
30.10.2020 12:00:00 17,0 12,0 8 4 ENE - 10 -
30.10.2020 11:00:00 16,0 12,0 5 3 E - 10 -
30.10.2020 10:00:00 14,5 11,1 2 1 S 1023,4 20 60
30.10.2020 09:00:00 13,0 11,0 2 1 W - 10 -
30.10.2020 08:00:00 9,0 7,0 2 1 W - 10 -
30.10.2020 07:00:00 8,6 6,4 5 3 WSW 1023,1 10 0
30.10.2020 06:00:00 9,0 7,0 5 3 WSW - 10 -
30.10.2020 05:00:00 9,0 7,0 5 3 SW - 10 -
30.10.2020 04:00:00 9,0 7,0 8 4 SW 1022,4 10 -
30.10.2020 03:00:00 9,0 7,0 8 4 WSW - 10 -
30.10.2020 02:00:00 9,0 7,0 4 2 WNW - 10 -
30.10.2020 01:00:00 9,0 7,0 2 1 W 1022,1 10 -
30.10.2020 00:00:00 10,0 8,0 5 3 W - 10 -
29.10.2020 23:00:00 10,0 8,0 11 6 WSW - 10 -
29.10.2020 22:00:00 10,4 9,0 9 5 WSW 1022,0 10 -
29.10.2020 21:00:00 11,0 10,0 4 2 WSW - 10 -
29.10.2020 20:00:00 12,0 11,0 2 1 SW - 10 -
29.10.2020 19:00:00 13,0 11,4 8 4 SW 1019,8 10 -
29.10.2020 18:00:00 14,0 12,0 5 3 SW - 10 -
29.10.2020 17:00:00 16,0 12,0 5 3 W - 10 -
29.10.2020 16:00:00 17,0 11,9 5 3 W 1019,0 10 0
29.10.2020 15:00:00 17,0 12,0 5 3 NW - 10 -
29.10.2020 14:00:00 16,0 10,0 5 3 W - 10 -
29.10.2020 13:00:00 15,0 10,2 9 5 W 1019,0 10 0
29.10.2020 12:00:00 14,0 9,0 9 5 WSW - 10 -
29.10.2020 11:00:00 13,0 10,0 8 4 WSW - 10 -
29.10.2020 10:00:00 12,0 9,2 5 3 SW 1019,0 10 0
29.10.2020 09:00:00 10,0 8,0 5 3 NW - 10 -
29.10.2020 08:00:00 8,0 6,0 2 1 NE - 10 -
29.10.2020 07:00:00 7,8 5,9 4 2 N 1017,7 16 0
29.10.2020 06:00:00 8,0 6,0 4 2 SSE - 10 -
29.10.2020 05:00:00 8,0 6,0 4 2 - - 10 -
29.10.2020 04:00:00 8,0 6,3 11 6 SSW 1017,6 16 -
29.10.2020 03:00:00 8,0 6,0 8 4 W - 10 -
29.10.2020 02:00:00 8,0 6,0 5 3 SW - 10 -
29.10.2020 01:00:00 8,2 6,7 8 4 W 1018,1 16 -
29.10.2020 00:00:00 8,0 6,0 11 6 SW - 10 -
28.10.2020 23:00:00 9,0 7,0 9 5 SSW - 10 -
28.10.2020 22:00:00 9,8 8,2 5 3 SSW 1018,3 16 -
28.10.2020 21:00:00 10,0 8,0 11 6 SW - 10 -
28.10.2020 20:00:00 11,0 10,0 11 6 SW - 10 -
28.10.2020 19:00:00 11,2 9,8 9 5 SSW 1017,8 16 -
28.10.2020 18:00:00 13,0 11,0 2 1 SSE - 10 -
28.10.2020 17:00:00 16,0 11,0 8 4 WNW - 10 -
28.10.2020 16:00:00 16,8 10,9 4 2 W 1017,4 16 60
28.10.2020 15:00:00 16,0 11,0 11 6 WNW - 10 -
28.10.2020 14:00:00 15,0 11,0 15 8 WNW - 10 -
28.10.2020 13:00:00 15,6 10,6 15 8 WNW 1017,8 16 24
28.10.2020 12:00:00 16,0 11,0 9 5 WNW - 10 -
28.10.2020 11:00:00 16,0 10,0 11 6 WNW - 10 -
28.10.2020 10:00:00 14,0 9,8 15 8 W 1017,7 16 60
28.10.2020 09:00:00 12,0 10,0 9 5 SW - 10 -
28.10.2020 08:00:00 8,0 6,0 9 5 SW - 10 -
28.10.2020 07:00:00 7,3 5,3 9 5 WSW 1016,8 20 -
28.10.2020 06:00:00 8,0 6,0 9 5 SW - 10 -
28.10.2020 05:00:00 8,0 6,0 11 6 WSW - 10 -
28.10.2020 04:00:00 8,3 6,3 11 6 WSW 1016,5 15 -
28.10.2020 03:00:00 8,0 6,0 9 5 WSW - 10 -
28.10.2020 02:00:00 9,0 7,0 5 3 WNW - 10 -
28.10.2020 01:00:00 9,0 7,0 5 3 W 1016,1 20 -
28.10.2020 00:00:00 10,0 8,0 4 2 W - 10 -
27.10.2020 23:00:00 10,0 9,0 5 3 WSW - 10 -
27.10.2020 22:00:00 10,1 9,0 8 4 WSW 1015,2 20 -
27.10.2020 21:00:00 10,0 9,0 8 4 WSW - 10 -
27.10.2020 20:00:00 11,0 11,0 2 1 E - 10 -
27.10.2020 19:00:00 12,1 11,3 4 2 W 1013,2 20 -
27.10.2020 18:00:00 14,0 12,0 5 3 ESE - 10 -
27.10.2020 17:00:00 15,0 12,0 4 2 NW - 10 -
27.10.2020 16:00:00 16,4 12,2 5 3 NNW 1011,0 20 60
27.10.2020 15:00:00 16,0 12,0 11 6 N - 10 -
27.10.2020 14:00:00 16,0 12,0 15 8 NE - 10 -
27.10.2020 13:00:00 15,8 13,3 18 10 NE 1010,2 15 54
27.10.2020 12:00:00 18,0 12,0 8 4 NW - 10 -
27.10.2020 11:00:00 18,0 10,0 18 10 W - 10 -
27.10.2020 10:00:00 15,9 10,0 4 2 SSW 1008,2 10 36
27.10.2020 09:00:00 13,0 11,0 8 4 E - 10 -
27.10.2020 08:00:00 13,0 10,0 8 4 WSW - 10 -
27.10.2020 07:00:00 14,2 11,7 13 7 SSW 1006,2 20 0
27.10.2020 06:00:00 14,0 11,0 15 8 SW - 10 -
27.10.2020 05:00:00 15,0 10,0 11 6 SW - 10 -
27.10.2020 04:00:00 15,0 10,8 18 10 SW 1005,4 15 0
27.10.2020 03:00:00 14,0 13,0 4 2 W - 10 -
27.10.2020 02:00:00 14,0 13,0 5 3 W - 10 -
27.10.2020 01:00:00 14,0 13,2 4 2 WSW 1004,9 11 0
27.10.2020 00:00:00 16,0 14,0 9 5 WSW - 10 -
26.10.2020 23:00:00 18,0 14,0 16 9 SSE - 10 -
26.10.2020 22:00:00 18,0 13,5 28 15 SE 1005,6 15 0
26.10.2020 21:00:00 18,0 14,0 28 15 SE - 10 -
26.10.2020 20:00:00 18,0 14,0 24 13 SE - 10 -
26.10.2020 19:00:00 18,0 13,5 24 13 SE 1006,2 15 0
26.10.2020 18:00:00 19,0 14,0 21 11 SSE - 10 -
26.10.2020 17:00:00 19,0 13,0 16 9 SSE - 10 -
26.10.2020 16:00:00 20,0 13,2 21 11 SSE 1006,2 20 60
26.10.2020 15:00:00 22,0 13,0 16 9 S - 10 -
26.10.2020 14:00:00 22,0 12,0 21 11 S - 10 -
26.10.2020 13:00:00 21,2 12,6 21 11 S 1008,0 20 30
26.10.2020 12:00:00 20,0 13,0 37 20 SSW - 10 -
26.10.2020 11:00:00 21,0 13,0 24 13 S - 10 -
26.10.2020 10:00:00 20,0 12,7 18 10 SSW 1009,4 20 60
26.10.2020 09:00:00 19,0 13,0 9 5 W - 10 -
26.10.2020 08:00:00 16,0 13,0 11 6 S - 10 -
26.10.2020 07:00:00 12,0 10,4 8 4 SE 1010,7 20 0
26.10.2020 06:00:00 11,0 9,0 9 5 SE - 10 -
26.10.2020 05:00:00 13,0 10,0 8 4 ESE - 10 -
26.10.2020 04:00:00 14,0 10,6 8 4 SSW 1012,2 10 -
26.10.2020 03:00:00 13,0 10,0 9 5 S - 10 -
26.10.2020 02:00:00 14,0 10,0 5 3 SSW - 10 -
26.10.2020 01:00:00 14,0 10,4 8 4 S 1013,9 10 -
26.10.2020 00:00:00 14,0 11,0 16 9 SSW - 10 -
25.10.2020 23:00:00 13,0 10,0 8 4 S - 10 -
25.10.2020 22:00:00 12,0 9,7 4 2 S 1014,3 8 -
25.10.2020 21:00:00 13,0 10,0 5 3 SSW - 4,0 -
25.10.2020 20:00:00 13,0 11,0 5 3 SSW - 3,0 -
25.10.2020 19:00:00 14,0 12,4 5 3 SSE 1014,3 2,0 -
25.10.2020 18:00:00 15,0 13,0 8 4 E - 3,0 -
25.10.2020 17:00:00 16,0 14,0 8 4 E - 3,0 -
25.10.2020 16:00:00 17,0 15,4 13 7 E 1014,3 5 60
25.10.2020 15:00:00 19,0 16,0 11 6 ENE - 7 -
25.10.2020 14:00:00 18,0 15,0 8 4 WNW - 10 -
25.10.2020 13:00:00 18,0 14,5 8 4 NW 1015,4 10 60
25.10.2020 12:00:00 17,0 14,0 9 5 WNW - 7 -
25.10.2020 11:00:00 16,0 13,0 11 6 WNW - 6 -
25.10.2020 10:00:00 15,0 12,1 9 5 WNW 1016,5 5 30
25.10.2020 09:00:00 15,0 12,0 9 5 W - 3,5 -
25.10.2020 08:00:00 13,0 10,0 8 4 W - 3,0 -
25.10.2020 07:00:00 13,2 10,4 8 4 NW 1016,3 2,8 -
25.10.2020 06:00:00 13,0 10,0 5 3 W - 10 -
25.10.2020 05:00:00 13,0 10,0 11 6 W - 10 -
25.10.2020 04:00:00 13,2 10,4 5 3 W 1015,9 10 -
25.10.2020 03:00:00 13,0 10,0 8 4 W - 10 -
25.10.2020 02:00:00 13,0 10,0 5 3 NW - 10 -
25.10.2020 01:00:00 - - - - - - - -
25.10.2020 00:00:00 13,0 10,0 8 4 SW - 10 -
24.10.2020 23:00:00 13,0 10,0 8 4 W - 10 -
24.10.2020 22:00:00 13,3 10,5 9 5 W 1016,1 10 -
24.10.2020 21:00:00 13,0 10,0 9 5 WSW - 8 -
24.10.2020 20:00:00 14,0 11,0 4 2 SW - 8 -
24.10.2020 19:00:00 13,6 10,8 5 3 ESE 1015,9 7 -
24.10.2020 18:00:00 14,0 11,0 8 4 N - 7 -
24.10.2020 17:00:00 14,0 11,0 5 3 S - 5 -
24.10.2020 16:00:00 13,7 10,9 5 3 WSW 1016,1 1,0 -
24.10.2020 15:00:00 14,0 11,0 5 3 SSE - 1,0 -
24.10.2020 14:00:00 14,0 11,0 4 2 W - 1,0 -

tt = temperature
td = dewpoint
ff = wind speed
dd = wind direction
ppp = reduced air pressure
vv = visibility
sd = sunshine duration

Next stations